Time,TemperatureF,DewpointF,PressureIn,WindDirection,WindDirectionDegrees,WindSpeedMPH,WindSpeedGustMPH,Humidity,HourlyPrecipIn,Conditions,Clouds,dailyrainin,SoftwareType,DateUTC
2013-03-06 00:00:00,8.6,-4.2,28.14,NE,45,0.0,0.0,55,0.00,,---,0.00,VWS V14.01,2013-03-06 06:00:00,
2013-03-06 00:05:00,8.6,-4.2,28.14,North,0,0.0,0.0,55,0.00,,---,0.00,VWS V14.01,2013-03-06 06:05:00,
2013-03-06 00:10:00,8.6,-4.2,28.14,NE,45,0.0,0.0,55,0.00,,---,0.00,VWS V14.01,2013-03-06 06:10:00,
2013-03-06 00:15:00,8.4,-4.4,28.14,NE,45,0.0,0.0,55,0.00,,---,0.00,VWS V14.01,2013-03-06 06:15:00,
2013-03-06 00:20:00,8.2,-4.6,28.14,NW,315,0.0,0.0,55,0.00,,---,0.00,VWS V14.01,2013-03-06 06:20:00,
2013-03-06 00:25:00,8.1,-4.8,28.14,NE,45,0.0,0.0,55,0.00,,---,0.00,VWS V14.01,2013-03-06 06:25:00,
2013-03-06 00:30:00,7.9,-4.9,28.14,NE,45,0.0,0.0,55,0.00,,---,0.00,VWS V14.01,2013-03-06 06:30:00,
2013-03-06 00:35:00,7.5,-5.3,28.14,NNE,22,0.0,0.0,55,0.00,,---,0.00,VWS V14.01,2013-03-06 06:35:00,
2013-03-06 00:40:00,7.3,-5.4,28.14,NNW,338,0.0,0.0,55,0.00,,---,0.00,VWS V14.01,2013-03-06 06:40:00,
2013-03-06 00:45:00,7.2,-5.6,28.14,NNE,22,0.0,2.2,55,0.00,,---,0.00,VWS V14.01,2013-03-06 06:45:00,
2013-03-06 00:50:00,7.2,-5.6,28.14,NNE,22,0.0,0.0,55,0.00,,---,0.00,VWS V14.01,2013-03-06 06:50:00,
2013-03-06 00:55:00,7.2,-5.6,28.14,North,0,3.1,3.1,55,0.00,,---,0.00,VWS V14.01,2013-03-06 06:55:00,
2013-03-06 01:00:00,7.2,-5.6,28.14,NNE,22,4.0,4.0,55,0.00,,---,0.00,VWS V14.01,2013-03-06 07:00:00,
2013-03-06 01:05:00,7.0,-5.8,28.11,NNW,338,2.7,2.7,55,0.00,,---,0.00,VWS V14.01,2013-03-06 07:05:00,
2013-03-06 01:10:00,7.0,-5.8,28.11,NNE,22,4.0,4.0,55,0.00,,---,0.00,VWS V14.01,2013-03-06 07:10:00,
2013-03-06 01:15:00,6.8,-5.9,28.11,NNE,22,3.1,3.6,55,0.00,,---,0.00,VWS V14.01,2013-03-06 07:15:00,
2013-03-06 01:20:00,6.6,-6.1,28.11,NNE,22,5.4,5.4,55,0.00,,---,0.00,VWS V14.01,2013-03-06 07:20:00,
2013-03-06 01:25:00,6.8,-5.9,28.11,NW,315,3.1,3.1,55,0.00,,---,0.00,VWS V14.01,2013-03-06 07:25:00,
2013-03-06 01:30:00,7.0,-5.8,28.11,NNE,22,2.7,2.7,55,0.00,,---,0.00,VWS V14.01,2013-03-06 07:30:00,
2013-03-06 01:35:00,7.2,-5.6,28.11,NNW,338,2.7,2.7,55,0.00,,---,0.00,VWS V14.01,2013-03-06 07:35:00,
2013-03-06 01:40:00,7.2,-5.6,28.11,North,0,2.7,3.1,55,0.00,,---,0.00,VWS V14.01,2013-03-06 07:40:00,
2013-03-06 01:45:00,7.5,-5.3,28.11,NNE,22,0.0,2.7,55,0.00,,---,0.00,VWS V14.01,2013-03-06 07:45:00,
2013-03-06 01:50:00,7.5,-5.3,28.11,NNE,22,0.0,0.0,55,0.00,,---,0.00,VWS V14.01,2013-03-06 07:50:00,
2013-03-06 01:55:00,7.7,-5.1,28.11,NNE,22,2.7,2.7,55,0.00,,---,0.00,VWS V14.01,2013-03-06 07:55:00,
2013-03-06 02:00:00,7.9,-4.9,28.11,NNW,338,0.0,0.0,55,0.00,,---,0.00,VWS V14.01,2013-03-06 08:00:00,
2013-03-06 02:05:00,8.1,-4.8,28.11,NNE,22,0.0,0.0,55,0.00,,---,0.00,VWS V14.01,2013-03-06 08:05:00,
2013-03-06 02:10:00,8.2,-4.6,28.11,NW,315,0.0,0.0,55,0.00,,---,0.00,VWS V14.01,2013-03-06 08:10:00,
2013-03-06 02:15:00,8.4,-4.4,28.11,NNE,22,0.0,0.0,55,0.00,,---,0.00,VWS V14.01,2013-03-06 08:15:00,
2013-03-06 02:20:00,8.4,-4.4,28.11,NNE,22,0.0,0.0,55,0.00,,---,0.00,VWS V14.01,2013-03-06 08:20:00,
2013-03-06 02:25:00,8.8,-4.1,28.11,NNE,22,0.0,0.0,55,0.00,,---,0.00,VWS V14.01,2013-03-06 08:25:00,
2013-03-06 02:30:00,9.0,-3.9,28.11,South,180,0.0,0.0,55,0.00,,---,0.00,VWS V14.01,2013-03-06 08:30:00,
2013-03-06 02:35:00,9.3,-3.6,28.11,South,180,0.0,0.0,55,0.00,,---,0.00,VWS V14.01,2013-03-06 08:35:00,
2013-03-06 02:40:00,9.7,-3.2,28.11,SE,135,0.0,0.0,55,0.00,,---,0.00,VWS V14.01,2013-03-06 08:40:00,
2013-03-06 02:45:00,10.0,-2.9,28.11,SE,135,0.0,0.0,55,0.00,,---,0.00,VWS V14.01,2013-03-06 08:45:00,
2013-03-06 02:50:00,10.4,-2.6,28.11,SE,135,2.7,3.1,55,0.00,,---,0.00,VWS V14.01,2013-03-06 08:50:00,
2013-03-06 02:55:00,10.8,-2.2,28.11,SSE,158,2.7,3.1,55,0.00,,---,0.00,VWS V14.01,2013-03-06 08:55:00,
2013-03-06 03:00:00,10.8,-2.2,28.11,SE,135,4.0,4.0,55,0.00,,---,0.00,VWS V14.01,2013-03-06 09:00:00,
2013-03-06 03:05:00,10.9,-2.0,28.11,SSE,158,2.7,2.7,55,0.00,,---,0.00,VWS V14.01,2013-03-06 09:05:00,
2013-03-06 03:10:00,10.9,-2.0,28.11,SSE,158,0.0,2.2,55,0.00,,---,0.00,VWS V14.01,2013-03-06 09:10:00,
2013-03-06 03:15:00,10.6,-2.4,28.11,SSE,158,0.0,0.0,55,0.00,,---,0.00,VWS V14.01,2013-03-06 09:15:00,
2013-03-06 03:20:00,10.2,-2.7,28.11,SSE,158,0.0,0.0,55,0.00,,---,0.00,VWS V14.01,2013-03-06 09:20:00,
2013-03-06 03:25:00,10.0,-2.9,28.11,SSE,158,0.0,0.0,55,0.00,,---,0.00,VWS V14.01,2013-03-06 09:25:00,
2013-03-06 03:30:00,9.9,-3.1,28.11,SE,135,0.0,0.0,55,0.00,,---,0.00,VWS V14.01,2013-03-06 09:30:00,
2013-03-06 03:35:00,10.2,-2.7,28.08,ESE,112,0.0,0.0,55,0.00,,---,0.00,VWS V14.01,2013-03-06 09:35:00,
2013-03-06 03:40:00,10.2,-2.7,28.08,ESE,112,0.0,0.0,55,0.00,,---,0.00,VWS V14.01,2013-03-06 09:40:00,
2013-03-06 03:45:00,10.6,-2.4,28.08,East,90,0.0,0.0,55,0.00,,---,0.00,VWS V14.01,2013-03-06 09:45:00,
2013-03-06 03:50:00,10.8,-2.2,28.11,ESE,112,4.0,4.0,55,0.00,,---,0.00,VWS V14.01,2013-03-06 09:50:00,
2013-03-06 03:55:00,10.8,-2.2,28.11,SSE,158,4.0,4.0,55,0.00,,---,0.00,VWS V14.01,2013-03-06 09:55:00,
2013-03-06 04:00:00,10.8,-2.2,28.11,SE,135,2.2,4.0,55,0.00,,---,0.00,VWS V14.01,2013-03-06 10:00:00,
2013-03-06 04:05:00,10.8,-2.2,28.11,SE,135,2.7,3.6,55,0.00,,---,0.00,VWS V14.01,2013-03-06 10:05:00,
2013-03-06 04:10:00,10.8,-2.2,28.11,SE,135,3.1,3.1,55,0.00,,---,0.00,VWS V14.01,2013-03-06 10:10:00,
2013-03-06 04:15:00,10.8,-2.2,28.11,ESE,112,3.1,4.9,55,0.00,,---,0.00,VWS V14.01,2013-03-06 10:15:00,
2013-03-06 04:20:00,10.9,-2.0,28.08,SE,135,4.0,4.0,55,0.00,,---,0.00,VWS V14.01,2013-03-06 10:20:00,
2013-03-06 04:25:00,10.9,-2.0,28.08,SE,135,4.0,4.5,55,0.00,,---,0.00,VWS V14.01,2013-03-06 10:25:00,
2013-03-06 04:30:00,11.1,-1.9,28.08,SE,135,4.9,5.4,55,0.00,,---,0.00,VWS V14.01,2013-03-06 10:30:00,
2013-03-06 04:35:00,11.1,-1.9,28.08,SE,135,3.1,3.1,55,0.00,,---,0.00,VWS V14.01,2013-03-06 10:35:00,
2013-03-06 04:40:00,11.3,-1.7,28.08,SE,135,2.7,3.1,55,0.00,,---,0.00,VWS V14.01,2013-03-06 10:40:00,
2013-03-06 04:45:00,11.5,-1.5,28.08,SE,135,4.9,4.9,55,0.00,,---,0.00,VWS V14.01,2013-03-06 10:45:00,
2013-03-06 04:50:00,11.8,-1.2,28.08,SE,135,4.0,4.0,55,0.00,,---,0.00,VWS V14.01,2013-03-06 10:50:00,
2013-03-06 04:55:00,12.0,-1.0,28.08,SE,135,4.0,4.5,55,0.00,,---,0.00,VWS V14.01,2013-03-06 10:55:00,
2013-03-06 05:00:00,12.2,-0.9,28.08,SE,135,3.1,3.1,55,0.00,,---,0.00,VWS V14.01,2013-03-06 11:00:00,
2013-03-06 05:05:00,12.4,-0.7,28.08,SE,135,3.6,4.0,55,0.00,,---,0.00,VWS V14.01,2013-03-06 11:05:00,
2013-03-06 05:10:00,12.6,-0.5,28.08,SE,135,5.4,5.4,55,0.00,,---,0.00,VWS V14.01,2013-03-06 11:10:00,
2013-03-06 05:15:00,12.7,-0.4,28.08,SE,135,6.3,6.3,55,0.00,,---,0.00,VWS V14.01,2013-03-06 11:15:00,
2013-03-06 05:20:00,12.9,-0.2,28.08,SSE,158,6.3,6.3,55,0.00,,---,0.00,VWS V14.01,2013-03-06 11:20:00,
2013-03-06 05:25:00,13.3,0.2,28.08,SSE,158,5.4,5.8,55,0.00,,---,0.00,VWS V14.01,2013-03-06 11:25:00,
2013-03-06 05:30:00,13.3,0.2,28.08,SE,135,6.3,7.6,55,0.00,,---,0.00,VWS V14.01,2013-03-06 11:30:00,
2013-03-06 05:35:00,13.3,0.2,28.08,SSE,158,7.6,7.6,55,0.00,,---,0.00,VWS V14.01,2013-03-06 11:35:00,
2013-03-06 05:40:00,13.3,0.2,28.08,SSE,158,6.3,7.6,55,0.00,,---,0.00,VWS V14.01,2013-03-06 11:40:00,
2013-03-06 05:45:00,13.3,0.2,28.08,SE,135,7.6,7.6,55,0.00,,---,0.00,VWS V14.01,2013-03-06 11:45:00,
2013-03-06 05:50:00,13.3,0.2,28.08,SSE,158,8.3,8.3,55,0.00,,---,0.00,VWS V14.01,2013-03-06 11:50:00,
2013-03-06 05:55:00,13.3,0.2,28.08,SSE,158,7.6,7.6,55,0.00,,---,0.00,VWS V14.01,2013-03-06 11:55:00,
2013-03-06 06:00:00,13.3,0.2,28.08,SSE,158,5.8,6.3,55,0.00,,---,0.00,VWS V14.01,2013-03-06 12:00:00,
2013-03-06 06:05:00,13.3,0.2,28.08,SSE,158,4.9,6.7,55,0.00,,---,0.00,VWS V14.01,2013-03-06 12:05:00,
2013-03-06 06:10:00,13.3,0.2,28.08,SSE,158,5.8,6.3,55,0.00,,---,0.00,VWS V14.01,2013-03-06 12:10:00,
2013-03-06 06:15:00,13.3,0.2,28.08,SE,135,8.1,8.1,55,0.00,,---,0.00,VWS V14.01,2013-03-06 12:15:00,
2013-03-06 06:20:00,13.3,0.2,28.08,SSE,158,5.4,7.6,55,0.00,,---,0.00,VWS V14.01,2013-03-06 12:20:00,
2013-03-06 06:25:00,13.1,0.0,28.08,SE,135,5.8,6.3,55,0.00,,---,0.00,VWS V14.01,2013-03-06 12:25:00,
2013-03-06 06:30:00,13.3,0.2,28.08,SSE,158,7.6,7.6,55,0.00,,---,0.00,VWS V14.01,2013-03-06 12:30:00,
2013-03-06 06:35:00,13.3,0.2,28.08,SSE,158,8.1,8.3,55,0.00,,---,0.00,VWS V14.01,2013-03-06 12:35:00,
2013-03-06 06:40:00,13.6,0.5,28.08,SSE,158,9.6,9.6,55,0.00,,---,0.00,VWS V14.01,2013-03-06 12:40:00,
2013-03-06 06:45:00,13.6,0.5,28.08,SSE,158,6.7,8.1,55,0.00,,---,0.00,VWS V14.01,2013-03-06 12:45:00,
2013-03-06 06:50:00,13.5,0.3,28.08,SE,135,8.1,8.1,55,0.00,,---,0.00,VWS V14.01,2013-03-06 12:50:00,
2013-03-06 06:55:00,13.5,0.3,28.08,SE,135,7.2,8.3,55,0.00,,---,0.00,VWS V14.01,2013-03-06 12:55:00,
2013-03-06 07:00:00,13.5,0.3,28.08,SE,135,7.2,7.2,55,0.00,,---,0.00,VWS V14.01,2013-03-06 13:00:00,
2013-03-06 07:05:00,13.5,0.3,28.08,SSE,158,8.1,8.1,55,0.00,,---,0.04,VWS V14.01,2013-03-06 13:05:00,
2013-03-06 07:10:00,13.5,0.3,28.08,SSE,158,8.1,8.1,55,0.00,,---,0.00,VWS V14.01,2013-03-06 13:10:00,
2013-03-06 07:15:00,13.5,0.3,28.08,SSE,158,8.3,8.3,55,0.00,,---,0.00,VWS V14.01,2013-03-06 13:15:00,
2013-03-06 07:20:00,13.5,0.3,28.08,SE,135,8.1,8.1,55,0.00,,---,0.00,VWS V14.01,2013-03-06 13:20:00,
2013-03-06 07:25:00,13.5,0.3,28.08,SSE,158,8.7,8.7,55,0.00,,---,0.00,VWS V14.01,2013-03-06 13:25:00,
2013-03-06 07:30:00,13.5,0.3,28.08,SSE,158,7.6,8.3,55,0.00,,---,0.00,VWS V14.01,2013-03-06 13:30:00,
2013-03-06 07:35:00,13.5,0.3,28.05,SSE,158,7.6,7.6,55,0.00,,---,0.00,VWS V14.01,2013-03-06 13:35:00,
2013-03-06 07:40:00,13.6,0.5,28.05,SE,135,8.1,8.1,55,0.00,,---,0.00,VWS V14.01,2013-03-06 13:40:00,
2013-03-06 07:45:00,13.5,0.3,28.05,SSE,158,7.6,8.7,55,0.00,,---,0.00,VWS V14.01,2013-03-06 13:45:00,
2013-03-06 07:50:00,13.5,0.3,28.05,SE,135,7.2,7.2,55,0.00,,---,0.00,VWS V14.01,2013-03-06 13:50:00,
2013-03-06 07:55:00,13.3,0.2,28.05,SE,135,7.2,8.1,55,0.00,,---,0.00,VWS V14.01,2013-03-06 13:55:00,
2013-03-06 08:00:00,13.3,0.2,28.05,SE,135,8.1,8.1,55,0.00,,---,0.00,VWS V14.01,2013-03-06 14:00:00,
2013-03-06 08:05:00,13.3,0.2,28.05,SE,135,7.2,7.2,55,0.00,,---,0.00,VWS V14.01,2013-03-06 14:05:00,
2013-03-06 08:10:00,13.6,0.5,28.05,ESE,112,8.1,8.1,55,0.00,,---,0.00,VWS V14.01,2013-03-06 14:10:00,
2013-03-06 08:15:00,13.5,0.3,28.05,SSE,158,9.2,9.2,55,0.00,,---,0.00,VWS V14.01,2013-03-06 14:15:00,
2013-03-06 08:20:00,13.5,0.3,28.05,ESE,112,7.6,8.7,55,0.00,,---,0.00,VWS V14.01,2013-03-06 14:20:00,
2013-03-06 08:25:00,13.5,0.3,28.05,SE,135,8.1,8.3,55,0.00,,---,0.00,VWS V14.01,2013-03-06 14:25:00,
2013-03-06 08:30:00,13.6,0.5,28.05,SE,135,8.3,8.3,55,0.00,,---,0.00,VWS V14.01,2013-03-06 14:30:00,
2013-03-06 08:35:00,13.8,0.6,28.05,SE,135,10.1,10.1,55,0.00,,---,0.00,VWS V14.01,2013-03-06 14:35:00,
2013-03-06 08:40:00,14.0,10.6,28.05,ESE,112,10.5,10.5,86,0.00,,---,0.00,VWS V14.01,2013-03-06 14:40:00,
2013-03-06 08:45:00,14.2,10.5,28.05,SSE,158,8.3,10.1,85,0.00,,---,0.00,VWS V14.01,2013-03-06 14:45:00,
2013-03-06 08:50:00,14.4,10.7,28.05,SSE,158,10.1,12.8,85,0.00,,---,0.00,VWS V14.01,2013-03-06 14:50:00,
2013-03-06 08:55:00,14.4,10.7,28.05,SSE,158,13.2,15.0,85,0.00,,---,0.00,VWS V14.01,2013-03-06 14:55:00,
2013-03-06 09:00:00,14.5,10.9,28.05,SE,135,9.6,10.1,85,0.00,,---,0.00,VWS V14.01,2013-03-06 15:00:00,
2013-03-06 09:05:00,14.5,10.9,28.05,SSE,158,11.0,11.0,85,0.00,,---,0.00,VWS V14.01,2013-03-06 15:05:00,
2013-03-06 09:10:00,14.7,11.0,28.05,SSE,158,8.7,10.5,85,0.00,,---,0.00,VWS V14.01,2013-03-06 15:10:00,
2013-03-06 09:15:00,14.9,11.2,28.05,SE,135,10.5,12.8,85,0.00,,---,0.00,VWS V14.01,2013-03-06 15:15:00,
2013-03-06 09:20:00,14.9,11.2,28.05,SSE,158,12.3,15.4,85,0.00,,---,0.00,VWS V14.01,2013-03-06 15:20:00,
2013-03-06 09:25:00,14.9,10.9,28.05,SSE,158,11.0,12.8,84,0.00,,---,0.00,VWS V14.01,2013-03-06 15:25:00,
2013-03-06 09:30:00,14.9,10.7,28.05,SSE,158,8.3,17.5,83,0.00,,---,0.00,VWS V14.01,2013-03-06 15:30:00,
2013-03-06 09:35:00,15.1,10.9,28.05,SSE,158,8.7,10.1,83,0.00,,---,0.00,VWS V14.01,2013-03-06 15:35:00,
2013-03-06 09:40:00,15.1,10.6,28.05,SSE,158,10.1,11.0,82,0.00,,---,0.00,VWS V14.01,2013-03-06 15:40:00,
2013-03-06 09:45:00,15.3,10.8,28.05,SSE,158,9.2,11.4,82,0.00,,---,0.00,VWS V14.01,2013-03-06 15:45:00,
2013-03-06 09:50:00,15.3,10.8,28.05,SSE,158,9.6,9.6,82,0.00,,---,0.00,VWS V14.01,2013-03-06 15:50:00,
2013-03-06 09:55:00,15.4,10.9,28.05,SSE,158,10.1,10.1,82,0.00,,---,0.00,VWS V14.01,2013-03-06 15:55:00,
2013-03-06 10:00:00,15.4,10.7,28.05,SSE,158,12.8,15.0,81,0.00,,---,0.00,VWS V14.01,2013-03-06 16:00:00,
2013-03-06 10:05:00,16.0,10.9,28.02,SSE,158,10.5,11.0,80,0.00,,---,0.00,VWS V14.01,2013-03-06 16:05:00,
2013-03-06 10:10:00,16.0,10.9,28.02,SE,135,12.3,12.3,80,0.00,,---,0.00,VWS V14.01,2013-03-06 16:10:00,
2013-03-06 10:15:00,16.2,11.1,28.02,SE,135,10.1,11.0,80,0.00,,---,0.00,VWS V14.01,2013-03-06 16:15:00,
2013-03-06 10:20:00,16.2,10.8,28.02,SSE,158,10.5,11.0,79,0.00,,---,0.00,VWS V14.01,2013-03-06 16:20:00,
2013-03-06 10:25:00,16.3,11.0,28.02,SE,135,11.0,12.3,79,0.00,,---,0.00,VWS V14.01,2013-03-06 16:25:00,
2013-03-06 10:30:00,16.7,11.1,28.02,SSE,158,11.0,11.0,78,0.00,,---,0.00,VWS V14.01,2013-03-06 16:30:00,
2013-03-06 10:35:00,16.9,11.2,28.02,SSE,158,14.5,14.5,78,0.00,,---,0.00,VWS V14.01,2013-03-06 16:35:00,
2013-03-06 10:40:00,16.9,10.9,28.02,SSE,158,14.5,14.5,77,0.00,,---,0.00,VWS V14.01,2013-03-06 16:40:00,
2013-03-06 10:45:00,17.1,11.1,28.02,SSE,158,12.3,13.2,77,0.00,,---,0.00,VWS V14.01,2013-03-06 16:45:00,
2013-03-06 10:50:00,17.4,11.5,28.02,SSE,158,10.5,10.5,77,0.00,,---,0.00,VWS V14.01,2013-03-06 16:50:00,
2013-03-06 10:55:00,17.6,11.3,28.02,SSE,158,11.0,12.8,76,0.00,,---,0.00,VWS V14.01,2013-03-06 16:55:00,
2013-03-06 11:00:00,17.6,11.0,28.02,SE,135,9.2,12.3,75,0.00,,---,0.00,VWS V14.01,2013-03-06 17:00:00,
2013-03-06 11:05:00,17.8,10.9,28.02,SE,135,10.1,12.3,74,0.00,,---,0.00,VWS V14.01,2013-03-06 17:05:00,
2013-03-06 11:10:00,17.8,10.9,28.02,SSE,158,12.8,12.8,74,0.00,,---,0.00,VWS V14.01,2013-03-06 17:10:00,
2013-03-06 11:15:00,17.8,10.6,28.02,SSE,158,13.2,15.0,73,0.00,,---,0.00,VWS V14.01,2013-03-06 17:15:00,
2013-03-06 11:20:00,17.8,10.6,27.99,SSE,158,12.8,14.1,73,0.00,,---,0.00,VWS V14.01,2013-03-06 17:20:00,
2013-03-06 11:25:00,17.8,10.3,27.99,SSE,158,12.8,12.8,72,0.00,,---,0.00,VWS V14.01,2013-03-06 17:25:00,
2013-03-06 11:30:00,18.0,10.2,27.99,SSE,158,12.3,12.8,71,0.00,,---,0.00,VWS V14.01,2013-03-06 17:30:00,
2013-03-06 11:35:00,17.8,10.0,27.99,SSE,158,13.2,13.2,71,0.00,,---,0.00,VWS V14.01,2013-03-06 17:35:00,
2013-03-06 11:40:00,18.0,9.8,27.99,SE,135,12.3,14.1,70,0.00,,---,0.00,VWS V14.01,2013-03-06 17:40:00,
2013-03-06 11:45:00,18.1,10.0,27.99,SSE,158,13.2,13.2,70,0.00,,---,0.00,VWS V14.01,2013-03-06 17:45:00,
2013-03-06 11:50:00,18.3,10.2,27.99,SSE,158,12.8,15.4,70,0.00,,---,0.00,VWS V14.01,2013-03-06 17:50:00,
2013-03-06 11:55:00,18.3,9.9,27.99,SSE,158,15.4,15.4,69,0.00,,---,0.00,VWS V14.01,2013-03-06 17:55:00,
2013-03-06 12:00:00,18.7,10.2,27.99,SSE,158,13.2,15.0,69,0.00,,---,0.00,VWS V14.01,2013-03-06 18:00:00,
2013-03-06 12:05:00,18.3,9.5,27.96,SSE,158,15.0,15.0,68,0.00,,---,0.00,VWS V14.01,2013-03-06 18:05:00,
2013-03-06 12:10:00,18.5,9.7,27.96,SE,135,14.5,14.5,68,0.00,,---,0.00,VWS V14.01,2013-03-06 18:10:00,
2013-03-06 12:15:00,18.9,10.1,27.96,SSE,158,17.5,17.5,68,0.00,,---,0.00,VWS V14.01,2013-03-06 18:15:00,
2013-03-06 12:20:00,19.0,10.2,27.96,SSE,158,14.5,14.5,68,0.00,,---,0.00,VWS V14.01,2013-03-06 18:20:00,
2013-03-06 12:25:00,19.0,10.2,27.96,SE,135,14.5,15.0,68,0.00,,---,0.00,VWS V14.01,2013-03-06 18:25:00,
2013-03-06 12:30:00,19.4,10.6,27.96,SSE,158,13.2,13.2,68,0.00,,---,0.00,VWS V14.01,2013-03-06 18:30:00,
2013-03-06 12:35:00,19.6,10.4,27.96,SSE,158,12.3,12.3,67,0.00,,---,0.00,VWS V14.01,2013-03-06 18:35:00,
2013-03-06 12:40:00,19.9,10.4,27.96,SSE,158,15.4,15.4,66,0.00,,---,0.00,VWS V14.01,2013-03-06 18:40:00,
2013-03-06 12:45:00,20.3,10.8,27.96,SE,135,13.2,13.6,66,0.00,,---,0.00,VWS V14.01,2013-03-06 18:45:00,
2013-03-06 12:50:00,20.3,10.4,27.96,ESE,112,12.8,13.6,65,0.00,,---,0.00,VWS V14.01,2013-03-06 18:50:00,
2013-03-06 12:55:00,20.3,10.4,27.96,ESE,112,14.1,14.1,65,0.00,,---,0.00,VWS V14.01,2013-03-06 18:55:00,
2013-03-06 13:00:00,19.8,9.9,27.96,SSE,158,13.2,14.1,65,0.00,,---,0.00,VWS V14.01,2013-03-06 19:00:00,
2013-03-06 13:05:00,19.8,9.9,27.96,SE,135,13.6,13.6,65,0.00,,---,0.00,VWS V14.01,2013-03-06 19:05:00,
2013-03-06 13:10:00,19.9,10.1,27.96,ESE,112,14.5,14.5,65,0.00,,---,0.00,VWS V14.01,2013-03-06 19:10:00,
2013-03-06 13:15:00,19.8,10.3,27.96,SE,135,15.0,15.0,66,0.00,,---,0.00,VWS V14.01,2013-03-06 19:15:00,
2013-03-06 13:20:00,19.9,10.4,27.96,SSE,158,12.8,15.0,66,0.00,,---,0.00,VWS V14.01,2013-03-06 19:20:00,
2013-03-06 13:25:00,20.1,10.6,27.96,SSE,158,11.9,12.8,66,0.00,,---,0.00,VWS V14.01,2013-03-06 19:25:00,
2013-03-06 13:30:00,19.9,10.4,27.96,SE,135,11.9,13.2,66,0.00,,---,0.00,VWS V14.01,2013-03-06 19:30:00,
2013-03-06 13:35:00,20.3,10.8,27.93,SSE,158,12.3,12.8,66,0.00,,---,0.00,VWS V14.01,2013-03-06 19:35:00,
2013-03-06 13:40:00,20.8,11.3,27.93,ESE,112,13.6,15.0,66,0.00,,---,0.00,VWS V14.01,2013-03-06 19:40:00,
2013-03-06 13:45:00,20.3,10.4,27.93,SE,135,15.4,15.4,65,0.00,,---,0.00,VWS V14.01,2013-03-06 19:45:00,
2013-03-06 13:50:00,20.3,10.4,27.93,ESE,112,10.5,13.2,65,0.00,,---,0.00,VWS V14.01,2013-03-06 19:50:00,
2013-03-06 13:55:00,20.7,10.8,27.93,SSE,158,12.3,14.5,65,0.00,,---,0.00,VWS V14.01,2013-03-06 19:55:00,
2013-03-06 14:00:00,20.3,10.1,27.93,SSE,158,13.6,15.0,64,0.00,,---,0.00,VWS V14.01,2013-03-06 20:00:00,
2013-03-06 14:05:00,20.3,10.1,27.93,SSE,158,14.5,15.0,64,0.00,,---,0.00,VWS V14.01,2013-03-06 20:05:00,
2013-03-06 14:10:00,20.5,10.2,27.93,SE,135,15.9,15.9,64,0.00,,---,0.00,VWS V14.01,2013-03-06 20:10:00,
2013-03-06 14:15:00,20.7,10.8,27.93,ESE,112,12.3,14.1,65,0.00,,---,0.00,VWS V14.01,2013-03-06 20:15:00,
2013-03-06 14:20:00,20.7,10.4,27.93,SE,135,15.4,15.4,64,0.00,,---,0.00,VWS V14.01,2013-03-06 20:20:00,
2013-03-06 14:25:00,20.7,10.4,27.93,SE,135,12.3,15.0,64,0.00,,---,0.00,VWS V14.01,2013-03-06 20:25:00,
2013-03-06 14:30:00,20.5,10.2,27.93,SSE,158,15.9,17.0,64,0.00,,---,0.00,VWS V14.01,2013-03-06 20:30:00,
2013-03-06 14:35:00,20.3,9.7,27.90,SE,135,13.2,15.0,63,0.00,,---,0.00,VWS V14.01,2013-03-06 20:35:00,
2013-03-06 14:40:00,20.5,9.9,27.90,SE,135,13.2,13.6,63,0.00,,---,0.00,VWS V14.01,2013-03-06 20:40:00,
2013-03-06 14:45:00,20.3,9.7,27.90,SE,135,14.5,14.5,63,0.00,,---,0.00,VWS V14.01,2013-03-06 20:45:00,
2013-03-06 14:50:00,20.5,9.9,27.93,SSE,158,12.8,12.8,63,0.00,,---,0.00,VWS V14.01,2013-03-06 20:50:00,
2013-03-06 14:55:00,20.5,9.9,27.93,SSE,158,10.1,14.1,63,0.00,,---,0.00,VWS V14.01,2013-03-06 20:55:00,
2013-03-06 15:00:00,20.3,9.7,27.93,SE,135,15.0,16.8,63,0.00,,---,0.00,VWS V14.01,2013-03-06 21:00:00,
2013-03-06 15:05:00,20.1,9.6,27.90,SE,135,14.5,15.4,63,0.00,,---,0.00,VWS V14.01,2013-03-06 21:05:00,
2013-03-06 15:10:00,20.1,9.6,27.90,ESE,112,13.2,13.2,63,0.00,,---,0.00,VWS V14.01,2013-03-06 21:10:00,
2013-03-06 15:15:00,20.1,9.6,27.90,ESE,112,15.0,15.0,63,0.00,,---,0.00,VWS V14.01,2013-03-06 21:15:00,
2013-03-06 15:20:00,19.9,9.7,27.90,SE,135,15.4,15.4,64,0.00,,---,0.00,VWS V14.01,2013-03-06 21:20:00,
2013-03-06 15:25:00,19.8,9.6,27.90,SE,135,11.9,15.0,64,0.00,,---,0.00,VWS V14.01,2013-03-06 21:25:00,
2013-03-06 15:30:00,19.4,9.6,27.90,SE,135,10.5,12.3,65,0.00,,---,0.00,VWS V14.01,2013-03-06 21:30:00,
2013-03-06 15:35:00,19.2,9.7,27.90,SE,135,17.0,17.9,66,0.00,,---,0.00,VWS V14.01,2013-03-06 21:35:00,
2013-03-06 15:40:00,18.7,9.2,27.90,ESE,112,13.6,13.6,66,0.00,,---,0.00,VWS V14.01,2013-03-06 21:40:00,
2013-03-06 15:45:00,18.1,8.7,27.90,SE,135,14.5,16.8,66,0.00,,---,0.00,VWS V14.01,2013-03-06 21:45:00,
2013-03-06 15:50:00,18.0,8.9,27.90,SE,135,13.6,15.4,67,0.00,,---,0.00,VWS V14.01,2013-03-06 21:50:00,
2013-03-06 15:55:00,18.0,8.9,27.90,ESE,112,14.5,14.5,67,0.00,,---,0.00,VWS V14.01,2013-03-06 21:55:00,
2013-03-06 16:00:00,17.8,9.0,27.90,SE,135,15.4,16.3,68,0.00,,---,0.00,VWS V14.01,2013-03-06 22:00:00,
2013-03-06 16:05:00,17.8,9.4,27.90,SE,135,15.4,17.5,69,0.00,,---,0.00,VWS V14.01,2013-03-06 22:05:00,
2013-03-06 16:10:00,17.8,9.4,27.90,SE,135,15.4,15.4,69,0.00,,---,0.00,VWS V14.01,2013-03-06 22:10:00,
2013-03-06 16:15:00,18.0,9.8,27.90,SE,135,15.9,15.9,70,0.00,,---,0.00,VWS V14.01,2013-03-06 22:15:00,
2013-03-06 16:20:00,17.8,10.0,27.90,ESE,112,15.0,15.0,71,0.00,,---,0.00,VWS V14.01,2013-03-06 22:20:00,
2013-03-06 16:25:00,17.6,9.8,27.90,SE,135,12.3,15.0,71,0.00,,---,0.00,VWS V14.01,2013-03-06 22:25:00,
2013-03-06 16:30:00,18.0,10.2,27.90,ESE,112,13.6,13.6,71,0.00,,---,0.00,VWS V14.01,2013-03-06 22:30:00,
2013-03-06 16:35:00,18.3,10.8,27.90,SE,135,14.1,14.1,72,0.00,,---,0.00,VWS V14.01,2013-03-06 22:35:00,
2013-03-06 16:40:00,18.7,10.9,27.90,SE,135,12.3,12.8,71,0.00,,---,0.00,VWS V14.01,2013-03-06 22:40:00,
2013-03-06 16:45:00,18.5,10.7,27.90,SSE,158,14.1,14.1,71,0.00,,---,0.00,VWS V14.01,2013-03-06 22:45:00,
2013-03-06 16:50:00,18.3,10.2,27.90,SE,135,12.3,15.0,70,0.00,,---,0.00,VWS V14.01,2013-03-06 22:50:00,
2013-03-06 16:55:00,18.1,10.0,27.90,SSE,158,17.5,17.5,70,0.00,,---,0.00,VWS V14.01,2013-03-06 22:55:00,
2013-03-06 17:00:00,17.8,9.7,27.90,SE,135,15.0,15.0,70,0.00,,---,0.00,VWS V14.01,2013-03-06 23:00:00,
2013-03-06 17:05:00,17.8,9.7,27.90,SE,135,15.4,15.4,70,0.00,,---,0.00,VWS V14.01,2013-03-06 23:05:00,
2013-03-06 17:10:00,17.4,9.6,27.90,SE,135,12.3,12.3,71,0.00,,---,0.00,VWS V14.01,2013-03-06 23:10:00,
2013-03-06 17:15:00,17.2,9.5,27.90,ESE,112,11.9,13.2,71,0.00,,---,0.00,VWS V14.01,2013-03-06 23:15:00,
2013-03-06 17:20:00,17.1,9.6,27.88,ESE,112,15.4,15.4,72,0.00,,---,0.00,VWS V14.01,2013-03-06 23:20:00,
2013-03-06 17:25:00,16.9,9.4,27.88,SE,135,15.0,15.0,72,0.00,,---,0.00,VWS V14.01,2013-03-06 23:25:00,
2013-03-06 17:30:00,16.9,9.7,27.88,SE,135,12.8,12.8,73,0.00,,---,0.00,VWS V14.01,2013-03-06 23:30:00,
2013-03-06 17:35:00,16.7,9.6,27.88,ESE,112,11.4,12.3,73,0.00,,---,0.00,VWS V14.01,2013-03-06 23:35:00,
2013-03-06 17:40:00,16.7,9.6,27.88,SE,135,12.8,15.4,73,0.00,,---,0.00,VWS V14.01,2013-03-06 23:40:00,
2013-03-06 17:45:00,16.7,9.6,27.88,SE,135,8.7,10.1,73,0.00,,---,0.00,VWS V14.01,2013-03-06 23:45:00,
2013-03-06 17:50:00,16.5,9.7,27.88,SE,135,10.5,11.0,74,0.00,,---,0.00,VWS V14.01,2013-03-06 23:50:00,
2013-03-06 17:55:00,16.5,9.7,27.88,SSE,158,11.0,12.3,74,0.00,,---,0.00,VWS V14.01,2013-03-06 23:55:00,
2013-03-06 18:00:00,16.7,10.2,27.88,SE,135,10.5,10.5,75,0.00,,---,0.00,VWS V14.01,2013-03-07 00:00:00,
2013-03-06 18:05:00,16.7,10.2,27.90,SSE,158,12.3,12.3,75,0.00,,---,0.00,VWS V14.01,2013-03-07 00:05:00,
2013-03-06 18:10:00,16.7,10.5,27.90,SE,135,13.2,13.6,76,0.00,,---,0.00,VWS V14.01,2013-03-07 00:10:00,
2013-03-06 18:15:00,16.7,10.8,27.90,SE,135,15.4,17.5,77,0.00,,---,0.00,VWS V14.01,2013-03-07 00:15:00,
2013-03-06 18:20:00,16.7,10.8,27.88,SE,135,13.6,15.4,77,0.00,,---,0.00,VWS V14.01,2013-03-07 00:20:00,
2013-03-06 18:25:00,16.7,11.1,27.88,SE,135,15.9,17.0,78,0.00,,---,0.00,VWS V14.01,2013-03-07 00:25:00,
2013-03-06 18:30:00,16.7,11.1,27.88,SE,135,15.4,15.4,78,0.00,,---,0.00,VWS V14.01,2013-03-07 00:30:00,
2013-03-06 18:35:00,16.9,11.2,27.88,SE,135,15.0,15.0,78,0.00,,---,0.00,VWS V14.01,2013-03-07 00:35:00,
2013-03-06 18:40:00,16.9,11.5,27.88,SE,135,12.8,12.8,79,0.00,,---,0.00,VWS V14.01,2013-03-07 00:40:00,
2013-03-06 18:45:00,16.9,11.5,27.88,SE,135,11.0,12.3,79,0.00,,---,0.00,VWS V14.01,2013-03-07 00:45:00,
2013-03-06 18:50:00,16.9,11.5,27.88,SE,135,11.4,11.4,79,0.00,,---,0.00,VWS V14.01,2013-03-07 00:50:00,
2013-03-06 18:55:00,16.9,11.5,27.88,SE,135,11.0,13.2,79,0.00,,---,0.00,VWS V14.01,2013-03-07 00:55:00,
2013-03-06 19:00:00,17.1,12.0,27.88,SE,135,12.8,12.8,80,0.00,,---,0.00,VWS V14.01,2013-03-07 01:00:00,
2013-03-06 19:05:00,17.1,12.0,27.85,SE,135,11.0,12.3,80,0.00,,---,0.00,VWS V14.01,2013-03-07 01:05:00,
2013-03-06 19:10:00,16.9,11.8,27.85,SE,135,14.5,15.0,80,0.00,,---,0.00,VWS V14.01,2013-03-07 01:10:00,
2013-03-06 19:15:00,16.9,11.8,27.85,ESE,112,13.2,13.2,80,0.00,,---,0.00,VWS V14.01,2013-03-07 01:15:00,
2013-03-06 19:20:00,16.9,12.1,27.85,SE,135,17.5,17.5,81,0.00,,---,0.00,VWS V14.01,2013-03-07 01:20:00,
2013-03-06 19:25:00,16.9,12.1,27.85,SE,135,15.9,15.9,81,0.00,,---,0.00,VWS V14.01,2013-03-07 01:25:00,
2013-03-06 19:30:00,16.9,12.1,27.85,SE,135,15.4,15.4,81,0.00,,---,0.00,VWS V14.01,2013-03-07 01:30:00,
2013-03-06 19:35:00,16.9,12.1,27.85,SSE,158,12.3,12.8,81,0.00,,---,0.00,VWS V14.01,2013-03-07 01:35:00,
2013-03-06 19:40:00,16.9,12.1,27.85,SE,135,15.9,15.9,81,0.00,,---,0.00,VWS V14.01,2013-03-07 01:40:00,
2013-03-06 19:45:00,16.9,12.1,27.85,SE,135,16.3,16.8,81,0.00,,---,0.00,VWS V14.01,2013-03-07 01:45:00,
2013-03-06 19:50:00,16.7,11.9,27.88,ESE,112,15.0,15.0,81,0.00,,---,0.00,VWS V14.01,2013-03-07 01:50:00,
2013-03-06 19:55:00,16.7,11.9,27.88,SSE,158,15.4,15.4,81,0.00,,---,0.00,VWS V14.01,2013-03-07 01:55:00,
2013-03-06 20:00:00,16.5,11.7,27.88,SSE,158,14.1,14.1,81,0.00,,---,0.00,VWS V14.01,2013-03-07 02:00:00,
2013-03-06 20:05:00,16.5,11.7,27.85,ESE,112,10.1,10.1,81,0.00,,---,0.00,VWS V14.01,2013-03-07 02:05:00,
2013-03-06 20:10:00,16.3,11.5,27.85,SE,135,12.8,13.2,81,0.00,,---,0.00,VWS V14.01,2013-03-07 02:10:00,
2013-03-06 20:15:00,16.2,11.4,27.85,SE,135,12.8,15.0,81,0.00,,---,0.00,VWS V14.01,2013-03-07 02:15:00,
2013-03-06 20:20:00,16.2,11.4,27.85,SSE,158,13.6,15.4,81,0.00,,---,0.00,VWS V14.01,2013-03-07 02:20:00,
2013-03-06 20:25:00,16.0,11.2,27.85,SSE,158,13.2,13.2,81,0.00,,---,0.00,VWS V14.01,2013-03-07 02:25:00,
2013-03-06 20:30:00,16.0,11.2,27.85,SE,135,13.2,15.4,81,0.00,,---,0.00,VWS V14.01,2013-03-07 02:30:00,
2013-03-06 20:35:00,15.8,11.0,27.85,SE,135,12.8,12.8,81,0.00,,---,0.00,VWS V14.01,2013-03-07 02:35:00,
2013-03-06 20:40:00,15.8,11.0,27.85,ESE,112,14.5,14.5,81,0.00,,---,0.00,VWS V14.01,2013-03-07 02:40:00,
2013-03-06 20:45:00,15.6,10.8,27.85,SE,135,12.8,12.8,81,0.00,,---,0.00,VWS V14.01,2013-03-07 02:45:00,
2013-03-06 20:50:00,15.4,10.7,27.85,SSE,158,15.0,15.4,81,0.00,,---,0.00,VWS V14.01,2013-03-07 02:50:00,
2013-03-06 20:55:00,15.3,10.5,27.85,ESE,112,14.5,14.5,81,0.00,,---,0.00,VWS V14.01,2013-03-07 02:55:00,
2013-03-06 21:00:00,15.3,10.5,27.85,SSE,158,12.3,12.3,81,0.00,,---,0.00,VWS V14.01,2013-03-07 03:00:00,
2013-03-06 21:05:00,15.3,10.5,27.85,SE,135,12.3,12.3,81,0.00,,---,0.00,VWS V14.01,2013-03-07 03:05:00,
2013-03-06 21:10:00,15.3,10.5,27.85,SE,135,14.1,14.1,81,0.00,,---,0.00,VWS V14.01,2013-03-07 03:10:00,
2013-03-06 21:15:00,15.3,10.5,27.85,SE,135,15.4,15.4,81,0.00,,---,0.00,VWS V14.01,2013-03-07 03:15:00,
2013-03-06 21:20:00,15.3,10.5,27.85,SE,135,12.8,15.4,81,0.00,,---,0.00,VWS V14.01,2013-03-07 03:20:00,
2013-03-06 21:25:00,15.3,10.5,27.85,SE,135,14.1,14.1,81,0.00,,---,0.00,VWS V14.01,2013-03-07 03:25:00,
2013-03-06 21:30:00,15.3,10.5,27.85,SE,135,14.5,14.5,81,0.00,,---,0.00,VWS V14.01,2013-03-07 03:30:00,
2013-03-06 21:35:00,15.1,10.3,27.85,SE,135,13.2,13.2,81,0.00,,---,0.00,VWS V14.01,2013-03-07 03:35:00,
2013-03-06 21:40:00,15.1,10.3,27.85,SE,135,13.6,17.5,81,0.00,,---,0.00,VWS V14.01,2013-03-07 03:40:00,
2013-03-06 21:45:00,15.1,10.3,27.85,ESE,112,15.4,15.4,81,0.00,,---,0.00,VWS V14.01,2013-03-07 03:45:00,
2013-03-06 21:50:00,15.1,10.3,27.85,SE,135,12.3,12.3,81,0.00,,---,0.00,VWS V14.01,2013-03-07 03:50:00,
2013-03-06 21:55:00,15.1,10.3,27.85,ESE,112,12.3,12.3,81,0.00,,---,0.00,VWS V14.01,2013-03-07 03:55:00,
2013-03-06 22:00:00,15.3,10.5,27.85,SE,135,15.4,16.3,81,0.00,,---,0.00,VWS V14.01,2013-03-07 04:00:00,
2013-03-06 22:04:00,15.3,10.8,27.85,SSE,158,13.2,13.2,82,0.00,,---,0.00,VWS V14.01,2013-03-07 04:04:00,
2013-03-06 22:09:00,15.3,10.8,27.85,SSE,158,12.3,12.8,82,0.00,,---,0.00,VWS V14.01,2013-03-07 04:09:00,
2013-03-06 22:14:00,14.9,10.4,27.85,SE,135,15.4,15.4,82,0.00,,---,0.00,VWS V14.01,2013-03-07 04:14:00,
2013-03-06 22:19:00,14.7,10.2,27.85,SE,135,15.4,15.4,82,0.00,,---,0.00,VWS V14.01,2013-03-07 04:19:00,
2013-03-06 22:25:00,14.5,9.8,27.85,SE,135,11.0,11.9,81,0.00,,---,0.00,VWS V14.01,2013-03-07 04:25:00,
2013-03-06 22:30:00,14.4,9.6,27.85,SE,135,13.2,13.2,81,0.00,,---,0.00,VWS V14.01,2013-03-07 04:30:00,
2013-03-06 22:35:00,14.2,9.4,27.85,SE,135,12.3,13.6,81,0.00,,---,0.00,VWS V14.01,2013-03-07 04:35:00,
2013-03-06 22:40:00,14.2,9.4,27.85,SE,135,12.8,13.2,81,0.00,,---,0.00,VWS V14.01,2013-03-07 04:40:00,
2013-03-06 22:44:00,13.8,9.1,27.85,SE,135,10.5,11.4,81,0.00,,---,0.00,VWS V14.01,2013-03-07 04:44:00,
2013-03-06 22:49:00,13.6,8.9,27.85,SE,135,11.0,11.4,81,0.00,,---,0.00,VWS V14.01,2013-03-07 04:49:00,
2013-03-06 22:54:00,13.5,8.7,27.85,ESE,112,8.7,8.7,81,0.00,,---,0.00,VWS V14.01,2013-03-07 04:54:00,
2013-03-06 22:59:00,13.6,8.9,27.85,SSE,158,8.7,8.7,81,0.00,,---,0.00,VWS V14.01,2013-03-07 04:59:00,
2013-03-06 23:00:00,13.6,8.9,27.85,ESE,112,8.3,8.7,81,0.00,,---,0.00,VWS V14.01,2013-03-07 05:00:00,
2013-03-06 23:05:00,13.5,8.7,27.85,SE,135,8.7,8.7,81,0.00,,---,0.00,VWS V14.01,2013-03-07 05:05:00,
2013-03-06 23:10:00,13.5,8.7,27.85,SSE,158,8.1,9.6,81,0.00,,---,0.00,VWS V14.01,2013-03-07 05:10:00,
2013-03-06 23:15:00,13.5,8.7,27.85,ESE,112,8.3,10.5,81,0.00,,---,0.00,VWS V14.01,2013-03-07 05:15:00,
2013-03-06 23:20:00,13.5,8.7,27.85,SE,135,11.0,11.0,81,0.00,,---,0.00,VWS V14.01,2013-03-07 05:20:00,
2013-03-06 23:25:00,13.3,8.6,27.85,ESE,112,10.1,10.1,81,0.00,,---,0.00,VWS V14.01,2013-03-07 05:25:00,
2013-03-06 23:30:00,13.3,8.6,27.85,SSE,158,9.2,9.6,81,0.00,,---,0.00,VWS V14.01,2013-03-07 05:30:00,
2013-03-06 23:35:00,13.3,8.6,27.82,ESE,112,8.3,8.3,81,0.00,,---,0.00,VWS V14.01,2013-03-07 05:35:00,
2013-03-06 23:40:00,13.3,8.6,27.82,SE,135,6.7,6.7,81,0.00,,---,0.00,VWS V14.01,2013-03-07 05:40:00,
2013-03-06 23:45:00,13.3,8.6,27.82,SE,135,9.6,9.6,81,0.00,,---,0.00,VWS V14.01,2013-03-07 05:45:00,
2013-03-06 23:50:00,13.1,8.4,27.82,SSE,158,6.7,8.1,81,0.00,,---,0.00,VWS V14.01,2013-03-07 05:50:00,
2013-03-06 23:55:00,13.1,8.4,27.82,SSE,158,9.6,9.6,81,0.00,,---,0.00,VWS V14.01,2013-03-07 05:55:00,